{"data":{"norad_id":69148,"epoch":"2026-09-19T18:45:36.343296Z","epoch_age_seconds":85188,"freshness":"FRESH","line1":"1 69148U 26111A   26262.78167064  .00025077  00000+0  75055-3 0  9991","line2":"2 69148  53.1598  68.7095 0001509  86.9258 273.1917 15.34411924 18798","mean_motion":15.34411924,"eccentricity":0.0001509,"inclination_deg":53.1598,"raan_deg":68.7095,"arg_perigee_deg":86.9258,"mean_anomaly_deg":273.1917,"bstar":0.00075055,"rev_number":1879,"period_min":93.847028785212,"perigee_km":461.63552235146,"apogee_km":463.70007724003,"semimajor_km":6840.8047997957,"source":"CELESTRAK","updated_at":"2026-09-20T09:00:44.089181Z"}}